Date String (YYYY-MM-DD hh:mm:ss) UTC,Instrument flags,Ambient pressure (hPa),Sample flow (lpm),Bypass flow (lpm),Sample temperature (°C),Ambient temperature (°C),ASC tube jacket temperature (°C),LED temperature (°C),Box temperature (°C),Sample RH (%),Span deviation,Mass concentration (μg/m³),Mass concentration (μg/m³),Mass concentration (μg/m³)
DateTimeUTC,F1_M11,P_M11,Q1_M11,Q2_M11,T1_M11,T2_M11,T3_M11,T4_M11,T5_M11,U1_M11,ZSPAN_M11,X0_M11,X2_M11,X1_M11
2022-02-17 07:00:00,,0828.0,4.99,0.00,22.1,21.2,00.0,31.2,23.8,10.3,0000.0,0002.75,0002.00,0001.77
2022-02-17 07:01:00,,0828.1,4.99,0.00,22.2,21.8,00.0,31.2,23.9,10.2,0000.0,0002.73,0002.02,0001.80
2022-02-17 07:02:00,,0828.1,4.99,0.00,22.3,22.7,00.0,31.2,24.1,10.2,0000.0,0002.71,0002.04,0001.82
2022-02-17 07:03:00,,0828.1,5.01,0.00,22.4,23.1,00.0,31.3,24.3,10.1,0000.0,0002.66,0002.04,0001.83
2022-02-17 07:04:00,,0828.1,5.01,0.00,22.5,22.8,00.0,31.3,24.3,10.1,0000.0,0002.57,0002.02,0001.82
2022-02-17 07:05:00,,0828.0,4.99,0.00,22.4,22.6,00.0,31.3,24.3,10.1,0000.0,0002.47,0002.01,0001.83
2022-02-17 07:06:00,,0828.2,5.00,0.00,22.4,22.3,00.0,31.3,24.2,10.1,0000.0,0002.47,0002.01,0001.83
2022-02-17 07:07:00,,0828.2,5.01,0.00,22.4,22.0,00.0,31.3,24.1,10.1,0000.0,0002.41,0002.00,0001.84
2022-02-17 07:08:00,,0828.1,5.00,0.00,22.3,21.9,00.0,31.3,24.0,10.1,0000.0,0002.49,0002.04,0001.86
2022-02-17 07:09:00,,0828.2,5.00,0.00,22.3,21.7,00.0,31.3,24.0,10.1,0000.0,0002.55,0002.07,0001.88
2022-02-17 07:10:00,,0828.1,5.02,0.00,22.2,21.6,00.0,31.3,23.9,10.2,0000.0,0002.58,0002.08,0001.90
2022-02-17 07:11:00,,0828.1,5.00,0.00,22.2,21.5,00.0,31.2,23.9,10.2,0000.0,0002.55,0002.06,0001.90
2022-02-17 07:12:00,,0828.1,4.98,0.00,22.2,21.5,00.0,31.2,23.8,10.2,0000.0,0002.64,0002.09,0001.90
2022-02-17 07:13:00,,0828.1,5.01,0.00,22.1,21.4,00.0,31.2,23.8,10.2,0000.0,0002.68,0002.12,0001.92
2022-02-17 07:14:00,,0828.1,5.00,0.00,22.1,21.4,00.0,31.2,23.8,10.2,0000.0,0002.69,0002.11,0001.91
2022-02-17 07:15:00,,0828.2,5.01,0.00,22.1,21.3,00.0,31.2,23.8,10.3,0000.0,0002.73,0002.12,0001.89
2022-02-17 07:16:00,,0828.1,5.02,0.00,22.1,21.3,00.0,31.2,23.7,10.3,0000.0,0002.74,0002.12,0001.88
2022-02-17 07:17:00,,0828.1,5.00,0.00,22.1,21.3,00.0,31.2,23.7,10.3,0000.0,0002.76,0002.12,0001.88
2022-02-17 07:18:00,,0828.1,4.99,0.00,22.0,21.3,00.0,31.1,23.7,10.3,0000.0,0002.79,0002.13,0001.87
2022-02-17 07:19:00,,0828.1,5.01,0.00,22.0,21.2,00.0,31.1,23.7,10.3,0000.0,0002.82,0002.12,0001.85
2022-02-17 07:20:00,,0828.2,4.99,0.00,22.0,21.3,00.0,31.1,23.7,10.3,0000.0,0002.76,0002.09,0001.84
2022-02-17 07:21:00,,0828.2,5.00,0.00,22.1,21.7,00.0,31.1,23.8,10.3,0000.0,0002.75,0002.08,0001.83
2022-02-17 07:22:00,,0828.2,5.01,0.00,22.2,22.5,00.0,31.2,24.1,10.2,0000.0,0002.78,0002.12,0001.86
2022-02-17 07:23:00,,0828.3,4.99,0.00,22.4,23.1,00.0,31.2,24.4,10.1,0000.0,0002.73,0002.12,0001.90
2022-02-17 07:24:00,,0828.3,4.99,0.00,22.4,23.0,00.0,31.2,24.4,10.1,0000.0,0002.75,0002.14,0001.93
2022-02-17 07:25:00,,0828.2,5.00,0.00,22.5,22.7,00.0,31.3,24.4,10.0,0000.0,0002.90,0002.20,0001.99
2022-02-17 07:26:00,,0828.2,5.00,0.00,22.5,22.5,00.0,31.3,24.4,10.0,0000.0,0002.97,0002.26,0002.07
2022-02-17 07:27:00,,0828.2,5.00,0.00,22.5,22.3,00.0,31.3,24.3,10.0,0000.0,0002.98,0002.30,0002.13
2022-02-17 07:28:00,,0828.2,5.00,0.00,22.4,22.1,00.0,31.3,24.2,10.0,0000.0,0003.02,0002.33,0002.17
2022-02-17 07:29:00,,0828.2,5.02,0.00,22.4,22.0,00.0,31.3,24.2,10.1,0000.0,0003.06,0002.37,0002.19
2022-02-17 07:30:00,,0828.3,5.00,0.00,22.4,21.9,00.0,31.3,24.1,10.1,0000.0,0003.03,0002.39,0002.23
2022-02-17 07:31:00,,0828.3,4.99,0.00,22.4,21.8,00.0,31.3,24.1,10.1,0000.0,0003.09,0002.44,0002.27
2022-02-17 07:32:00,,0828.3,5.00,0.00,22.3,21.7,00.0,31.3,24.0,10.1,0000.0,0003.09,0002.45,0002.28
2022-02-17 07:33:00,,0828.3,5.02,0.00,22.3,21.7,00.0,31.3,24.0,10.1,0000.0,0003.08,0002.45,0002.29
2022-02-17 07:34:00,,0828.3,5.00,0.00,22.3,21.6,00.0,31.3,24.0,10.1,0000.0,0003.05,0002.43,0002.27
2022-02-17 07:35:00,,0828.3,4.99,0.00,22.3,21.6,00.0,31.3,24.0,10.1,0000.0,0003.02,0002.39,0002.25
2022-02-17 07:36:00,,0828.4,5.01,0.00,22.2,21.5,00.0,31.3,23.9,10.1,0000.0,0003.19,0002.36,0002.20
2022-02-17 07:37:00,,0828.4,4.99,0.00,22.2,21.5,00.0,31.3,23.9,10.1,0000.0,0003.13,0002.31,0002.15
2022-02-17 07:38:00,,0828.3,5.01,0.00,22.2,21.4,00.0,31.3,23.9,10.2,0000.0,0003.09,0002.29,0002.13
2022-02-17 07:39:00,,0828.3,5.00,0.00,22.2,21.4,00.0,31.2,23.8,10.2,0000.0,0003.09,0002.28,0002.12
2022-02-17 07:40:00,,0828.3,5.00,0.00,22.1,21.3,00.0,31.2,23.8,10.2,0000.0,0003.07,0002.26,0002.11
2022-02-17 07:41:00,,0828.3,5.01,0.00,22.1,21.3,00.0,31.2,23.8,10.2,0000.0,0003.03,0002.24,0002.11
2022-02-17 07:42:00,,0828.3,5.01,0.00,22.1,21.5,00.0,31.2,23.8,10.2,0000.0,0002.97,0002.21,0002.10
2022-02-17 07:43:00,,0828.4,5.01,0.00,22.2,22.3,00.0,31.2,24.0,10.2,0000.0,0003.04,0002.23,0002.10
2022-02-17 07:44:00,,0828.4,4.99,0.00,22.3,23.0,00.0,31.3,24.3,10.1,0000.0,0003.10,0002.25,0002.09
2022-02-17 07:45:00,,0828.4,5.00,0.00,22.4,23.0,00.0,31.3,24.4,10.1,0000.0,0003.13,0002.26,0002.09
2022-02-17 07:46:00,,0828.3,4.99,0.00,22.4,22.6,00.0,31.3,24.3,10.1,0000.0,0003.15,0002.26,0002.08
2022-02-17 07:47:00,,0828.3,5.00,0.00,22.4,22.4,00.0,31.3,24.2,10.1,0000.0,0002.80,0002.26,0002.08
2022-02-17 07:48:00,,0828.3,5.00,0.00,22.3,22.1,00.0,31.3,24.1,10.1,0000.0,0002.81,0002.29,0002.11
2022-02-17 07:49:00,,0828.4,5.00,0.00,22.3,21.9,00.0,31.3,23.9,10.1,0000.0,0002.86,0002.33,0002.14
2022-02-17 07:50:00,,0828.4,5.01,0.00,22.2,21.7,00.0,31.3,23.9,10.1,0000.0,0002.95,0002.38,0002.18
2022-02-17 07:51:00,,0828.4,4.99,0.00,22.2,21.6,00.0,31.2,23.8,10.2,0000.0,0003.05,0002.46,0002.25
2022-02-17 07:52:00,,0828.4,5.01,0.00,22.1,21.4,00.0,31.2,23.7,10.2,0000.0,0003.15,0002.53,0002.30
2022-02-17 07:53:00,,0828.4,4.99,0.00,22.0,21.3,00.0,31.2,23.6,10.3,0000.0,0003.24,0002.61,0002.37
2022-02-17 07:54:00,,0828.4,4.99,0.00,22.0,21.2,00.0,31.2,23.5,10.3,0000.0,0003.24,0002.64,0002.43
2022-02-17 07:55:00,,0828.4,5.01,0.00,21.9,21.1,00.0,31.1,23.5,10.3,0000.0,0003.30,0002.70,0002.50
2022-02-17 07:56:00,,0828.4,4.99,0.00,21.9,21.0,00.0,31.1,23.4,10.3,0000.0,0003.43,0002.79,0002.56
2022-02-17 07:57:00,,0828.5,4.99,0.00,21.9,21.3,00.0,31.1,23.5,10.3,0000.0,0003.56,0002.87,0002.62
2022-02-17 07:58:00,,0828.4,5.00,0.00,22.0,22.1,00.0,31.1,23.8,10.3,0000.0,0003.62,0002.94,0002.68
2022-02-17 07:59:00,,0828.4,5.00,0.00,22.1,22.9,00.0,31.1,24.1,10.2,0000.0,0003.64,0002.97,0002.73
